Lid_Strength_Index
-0 -1 -1 -2 -2 -2 -2 -2 -2 -1 -1 -1 -1 -1 -0 -0 -1 1 3 2 5 11 8 7 7 8 10 11 13 11 12 11 13 18 19 20 22 21 23 22 22 21 22 24 24 25 25 18 17 19 20 20 24 26
-0 -1 -2 -2 -2 -1 -2 -2 -1 -1 -1 -1 -1 -1 -0 -0 -0 1 5 2 3 8 9 6 7 7 7 7 11 12 11 13 12 17 19 19 21 21 24 24 19 21 19 21 20 20 18 20 19 21 23 20 23 20
-0 -1 -1 -2 -2 -2 -2 -2 -1 -1 -1 -1 -1 -1 -0 -0 -0 1 4 4 6 8 8 8 9 7 6 7 7 12 12 10 12 12 14 16 21 17 22 22 20 18 16 18 18 17 18 19 18 19 19 17 16 16
-0 -1 -1 -1 -2 -2 -1 -1 -1 -1 -1 -1 -1 -0 0 0 -1 0 3 4 6 11 15 11 6 9 7 6 7 7 8 9 10 12 14 18 20 15 18 17 18 16 16 17 17 15 16 16 15 15 17 17 17 17
-1 -1 -1 -2 -2 -2 -1 -1 -1 -1 -1 -1 -0 -0 0 -0 -0 1 3 4 5 9 16 14 9 10 9 8 7 7 7 9 12 13 17 18 16 16 17 18 19 14 16 17 17 14 13 13 14 14 16 16 16 17
-1 -2 -1 -1 -1 -1 -1 -1 -1 -1 -1 -1 -1 0 0 -1 1 4 7 5 5 8 15 17 14 15 12 11 9 8 8 8 9 12 15 14 12 14 23 23 14 14 13 13 14 14 15 15 14 14 15 16 16 17
-1 -1 -1 -1 -1 -1 -1 -1 -1 -1 -1 -1 -0 0 -1 0 2 6 9 6 3 8 16 17 16 13 10 12 11 10 8 10 10 11 13 14 14 14 17 22 14 14 13 14 15 15 16 16 16 16 17 18 19 20
-1 -1 -1 -1 -1 -1 -1 -1 -1 -1 -1 -1 -1 -0 -1 -0 3 6 5 2 6 11 15 22 19 16 12 12 15 14 15 13 14 15 15 15 15 16 20 15 14 14 15 17 17 17 15 16 17 18 18 19 21 20
-1 -1 -1 -1 -1 -1 -1 -0 -1 -1 -1 -1 -1 1 3 5 8 7 2 4 7 11 19 23 22 22 12 15 14 13 15 17 19 18 17 17 21 18 16 15 14 15 15 16 19 20 19 18 19 20 21 22 21 21
-1 -1 -1 -1 -1 -1 -1 -1 -1 -1 -1 -1 3 6 11 8 2 3 7 8 11 16 19 21 23 18 15 18 18 19 17 22 21 20 18 21 20 18 16 16 15 14 16 18 20 22 24 23 21 22 21 22 22 23
-1 -1 -1 -1 -1 -1 -1 -1 -1 -1 0 5 9 9 6 2 6 8 12 14 15 17 19 21 21 15 15 19 21 18 21 25 25 22 23 25 22 17 18 18 20 19 16 18 21 19 20 17 20 21 24 26 26 25
-0 -1 -1 -1 -1 -1 -1 -1 -1 2 4 5 5 5 6 8 10 13 16 16 17 18 21 19 18 17 19 16 19 20 24 24 24 24 22 22 17 16 19 20 22 23 21 24 25 21 21 19 21 22 23 24 24 26
-0 -0 -0 -1 -1 -1 -1 -1 -1 -0 2 4 6 9 10 12 14 15 18 20 19 19 17 17 18 18 19 17 23 24 25 26 26 24 23 19 17 18 20 25 25 26 23 25 26 28 24 25 27 25 25 28 27 28
-1 0 -0 -1 -1 -1 -1 -1 -0 2 5 8 10 13 15 19 18 22 23 23 19 20 19 18 17 19 24 19 25 25 26 26 29 27 23 19 19 19 23 26 25 25 28 25 26 27 25 23 26 29 29 29 27 27
0 0 -0 -0 -1 -1 -1 -0 2 6 8 11 12 14 20 22 24 20 22 20 19 16 17 18 19 16 20 22 25 27 26 28 26 23 21 19 20 24 24 24 25 25 24 23 26 24 25 27 26 25 25 25 26 25
1 1 1 -1 -0 -0 0 2 5 8 13 15 18 21 24 22 22 21 22 16 19 18 20 19 23 23 23 24 25 26 25 25 21 23 20 23 22 26 27 26 26 26 26 26 26 24 22 22 21 21 25 26 24 26
2 4 0 0 2 2 2 8 11 14 16 21 21 25 21 22 21 20 15 17 18 17 19 22 22 23 22 25 24 27 23 20 20 21 25 25 23 23 26 27 26 25 24 26 26 25 23 24 25 24 21 21 26 26
4 3 1 0 2 4 11 11 13 17 22 21 21 21 23 21 20 18 17 18 17 20 21 20 20 25 25 25 25 21 21 23 27 24 23 24 26 27 27 24 26 26 24 23 23 23 24 24 23 19 24 24 28 29
3 2 2 2 3 7 10 12 12 15 19 19 20 19 21 19 18 18 19 18 21 21 19 23 23 25 23 23 21 23 26 25 20 21 24 26 26 25 24 27 27 25 25 24 24 23 21 21 21 23 24 28 24 27
1 2 3 4 4 8 13 14 14 17 20 16 16 18 19 19 17 19 18 19 19 20 18 20 21 21 19 20 20 21 21 22 23 22 22 21 24 24 23 24 22 25 25 26 28 26 27 25 27 28 29 28 28 22
4 5 5 9 11 13 15 17 17 18 19 17 17 16 16 16 16 16 18 20 18 20 18 23 22 22 26 27 27 26 23 22 20 19 19 20 22 24 23 25 27 28 24 26 25 24 26 26 25 27 28 27 28 27
10 5 12 11 15 19 17 18 16 16 17 20 18 18 17 17 18 19 24 21 21 18 20 22 23 24 24 21 22 26 24 25 28 25 24 23 19 21 22 25 24 23 27 25 27 25 26 26 29 29 29 27 29 29
6 9 14 15 15 16 19 18 17 18 18 20 22 22 22 21 23 23 22 24 19 19 25 25 26 30 25 29 30 28 30 25 24 27 27 26 28 29 28 28 29 25 26 26 30 29 27 27 28 29 30 30 31 30
9 16 16 18 18 19 22 22 22 21 21 21 22 23 24 25 25 23 23 25 19 27 26 25 28 24 25 26 24 25 25 27 28 29 31 27 25 25 30 28 31 31 28 29 30 30 31 30 29 30 30 30 29 31
13 17 18 20 23 21 21 22 24 23 24 27 24 25 25 28 24 25 23 20 24 25 26 31 30 26 22 27 29 29 32 27 25 24 27 29 30 29 28 31 31 31 33 28 28 29 29 29 23 23 25 25 24 23
15 21 20 21 22 20 22 22 24 23 24 25 27 31 32 27 24 22 22 22 24 26 28 25 22 27 27 27 25 24 24 34 29 24 27 31 29 25 27 26 28 25 32 30 28 27 24 22 26 26 27 25 28 32
18 19 25 26 22 23 25 27 27 24 25 24 26 29 27 25 25 21 24 27 24 29 32 33 30 26 24 25 30 32 35 34 27 26 31 33 33 32 27 27 28 26 29 28 26 24 23 27 28 31 32 34 35 36
18 22 18 23 25 28 24 30 28 24 24 29 25 24 22 21 20 23 25 28 33 35 34 35 36 34 30 31 33 30 30 33 31 30 29 29 32 32 31 31 29 19 24 25 25 25 27 28 30 33 34 35 35 35
20 26 20 26 28 28 26 22 21 24 23 23 21 25 24 25 28 29 29 31 36 32 29 28 26 32 30 32 32 34 32 28 23 24 26 27 30 26 29 29 27 27 27 25 20 24 26 27 30 32 35 35 36 38
20 22 23 28 21 20 20 24 25 30 31 27 27 24 24 27 33 39 37 33 29 29 32 33 34 31 27 25 26 27 31 33 30 25 26 27 26 28 28 27 27 26 26 26 26 27 23 28 29 33 34 36 37 39
19 20 22 22 21 27 30 30 32 30 30 29 32 24 23 27 30 33 34 35 36 35 32 30 30 34 30 30 29 28 25 28 31 31 31 29 28 28 27 25 26 26 27 27 28 30 31 34 39 40 39 39 39 40
20 19 17 19 22 25 28 28 28 28 29 27 26 28 23 22 20 26 30 32 30 29 31 34 31 29 32 34 35 34 28 30 28 27 26 25 26 25 23 24 25 26 29 31 33 36 37 38 41 43 43 42 41 41
19 18 21 21 23 25 26 26 27 27 26 26 27 28 26 23 17 27 30 31 30 31 32 33 33 33 31 31 31 31 28 27 24 18 19 20 21 22 25 27 29 31 32 34 36 37 38 41 43 44 44 43 40 39